Regional Weather Roundup
Issued by NWS Kansas City/Pleasant Hill, MO

Home | Current Version | Previous Version | Graphics & Text | Print | Product List | Glossary Off
Versions: 1 2 3 4 5 6 7 8 9 10 11 12 13 14 15 16 17 18 19 20 21 22 23 24 25 26 27 28 29 30 31 32 33 34 35 36 37 38 39 40 41 42 43 44 45 46 47 48 49 50

000
ASUS43 KEAX 140504
RWREAX

WEATHER ROUNDUP FOR EASTERN KANSAS AND NORTHWEST MISSOURI
NATIONAL WEATHER SERVICE KANSAS CITY/PLEASANT HILL MO
1200 AM CDT MON JUL 14 2014

KSZ040-057-103>105-MOZ028-029-037-043-140600-
...KANSAS CITY METROPOLITAN AREA...

CITY           SKY/WX    TMP DP  RH WIND       PRES   REMARKS
K.C. INTL      PTCLDY    73  69  87 SW6       29.99F
K.C. DOWNTOWN  CLEAR     77  69  76 CALM      29.97F
LEES SUMMIT    CLEAR     71  68  90 SW3       30.00R
OLATHE - IXD   CLEAR     73  68  84 CALM      30.00F
OLATHE - OJC   CLEAR     75  67  76 NW3       29.99S
LAWRENCE       CLEAR     70  67  90 NW3       29.99S

$$

MOZ001>008-011>017-020>025-030>033-038>040-044>046-053-054-140600-
...NORTHERN AND CENTRAL MISSOURI...

CITY           SKY/WX    TMP DP  RH WIND       PRES   REMARKS
ST. JOSEPH     CLEAR     75  72  90 CALM      29.98S
MOSBY          CLEAR     72  72 100 CALM      29.98S
WHITEMAN AFB   CLEAR     71  66  86 CALM      29.98S FOG
CLINTON        CLEAR     72  72 100 CALM      29.98S FOG
SEDALIA        CLEAR     70  69  97 NW6       29.98S FOG
WARSAW         NOT AVBL
MARSHALL       FOG       73  73 100 SW5       29.99R VSB 1/4
CHILLICOTHE      N/A     74  70  87 CALM      29.97S
KIRKSVILLE     CLEAR     69  67  93 CALM      29.98R

$$

MOZ041-047>049-056>058-063>065-088>090-097-140600-
...EASTERN AND SOUTHERN MISSOURI...

CITY           SKY/WX    TMP DP  RH WIND       PRES   REMARKS
ST. LOUIS INTL CLOUDY    78  74  87 S5        29.96R
SPIRIT OF STL  CLOUDY    75  73  93 CALM      29.93S
COLUMBIA       PTCLDY    71  71 100 NW5       29.96F
JEFFERSON CITY CLOUDY    74  72  93 NW3       29.95S
HANNIBAL       CLEAR     72  68  88 CALM      29.96R
ROLLA          CLOUDY    71  69  93 CALM      29.97S
LEBANON        CLOUDY    72  70  94 SE6       30.00S
OSAGE BEACH    CLOUDY    72  70  94 CALM      29.97S
SPRINGFIELD    CLOUDY    77  71  82 E6        29.99F THUNDER
BRANSON        MOCLDY    79  70  73 CALM      30.00R
NEVADA         CLEAR     72  72 100 CALM      30.00R
JOPLIN         PTCLDY    77  72  84 NE3       29.98S
WEST PLAINS    MOCLDY    80  72  76 SW6       30.00R
MALDEN         PTCLDY    84  73  70 S13       29.94S HX  91

$$

IAZ060-094-KSZ022-034>040-054-083-096-NEZ052-066-093-140600-
...KANSAS...SOUTHEAST NEBRASKA AND IOWA...

CITY           SKY/WX    TMP DP  RH WIND       PRES   REMARKS
TOPEKA         CLEAR     74  70  87 CALM      29.99F
MANHATTAN      MOCLDY    71  68  90 CALM      30.01S
EMPORIA        PTCLDY    70  66  87 CALM      30.02S
CHANUTE        PTCLDY    76  71  85 NW3       29.99R
WICHITA        MOCLDY    76  69  79 W3        30.03S
OMAHA          CLEAR     73  68  84 CALM      29.97F
LINCOLN        CLEAR     74  68  81 W3        30.01S
FALLS CITY     CLEAR     71  69  93 CALM      29.98S
LAMONI         CLEAR     72  68  87 W7        29.97S
DES MOINES     MOCLDY    74  65  73 SW6       29.93F

$$



USA.gov is the U.S. government's official web portal to all federal, state and local government web resources and services.